Location: Albany
(35.0170°S, 117.8920°E)
Time: 02:03:01
(UTC+08:00)

Explorer 7 - Pass Details

Date: 26 January 2021
Orbit: 484 x 677 km, 50.3° (Epoch: 01 March)

Event Time Altitude Azimuth Distance (km) Brightness Sun altitude
Rises 21:40:09 0° 226° (SW) 2,905 11.9 -24.2°
Reaches altitude 10° 21:42:37 10° 220° (SW) 1,961 10.7 -24.5°
Enters shadow 21:46:47 47° 153° (SSE) 777 7.6 -25.1°
Maximum altitude 21:46:57 47° 145° (SE) 773 - -25.1°
Drops below altitude 10° 21:50:58 10° 71° (ENE) 1,825 - -25.7°
Sets 21:53:11 0° 64° (ENE) 2,680 - -26.0°
